Regional Weather Roundup
Issued by NWS Tiyan, Guam

Home | Current Version | Previous Version | Text Only | Print | Product List | Glossary On
Versions: 1 2 3 4 5 6 7 8 9 10 11 12 13 14 15 16 17 18 19 20 21 22 23 24 25 26 27
000
ASGM40 PGUM 200812
RWRGUM
WEATHER ROUNDUP FOR THE MARIANAS
NATIONAL WEATHER SERVICE TIYAN GU
600 PM CHST SUN AUG 20 2017

GUZ001>004-200900-
MARIANA ISLANDS-

CITY           SKY/WX    TMP DP  RH WIND       PRES   REMARKS
GUAM AIRPORT   PTCLDY    82  77  83 N6        29.81S HX  91
ANDERSEN AFB   MOCLDY    81  75  83 NW6       29.86S
ROTA AIRPORT   PTCLDY    81  72  74 VRB2      29.82R
TINIAN AP      PTCLDY    84  75  74 SE5       29.79R HX  92
SAIPAN AP      PTCLDY    88  75  66 CALM      29.80R HX  97

$$





USA.gov is the U.S. government's official web portal to all federal, state and local government web resources and services.